EW7603 Weather Reports


time (UTC)temp
F
wind
direction
speed
knots
gust
knots
rain 1hr
in
rain 24hr
in
rain mn
in
humidity
%
barometer
mb
20260509090040 50 174 2.6 0.0 0.00 0.00 0.00 88 1005.7
20260509084518 50 165 1.7 0.0 0.00 0.00 0.00 87 1005.7
20260509083032 50 127 3.5 0.0 0.00 0.00 0.00 86 1005.7
20260509081514 50 137 3.5 0.0 0.00 0.00 0.00 86 1005.8
20260509080012 50 149 2.6 0.0 0.00 0.00 0.00 85 1006.0
20260509074523 50 138 2.6 0.0 0.00 0.00 0.00 84 1006.1
20260509073008 50 154 2.6 0.0 0.00 0.00 0.00 83 1006.2
20260509071506 49 128 2.6 0.0 0.00 0.00 0.00 82 1006.1
20260509070005 49 140 3.5 0.0 0.00 0.00 0.00 81 1006.4
20260509064504 49 138 2.6 0.0 0.00 0.00 0.00 80 1006.6
20260509063003 49 139 3.5 0.0 0.00 0.00 0.00 80 1006.6
20260509061500 49 131 2.6 0.0 0.00 0.00 0.00 80 1006.8
20260509060100 48 131 2.6 0.0 0.00 0.00 0.00 79 1006.8
20260509054559 48 122 1.7 0.0 0.00 0.00 0.00 78 1007.2
20260509053057 48 132 1.7 0.0 0.00 0.00 0.00 77 1007.4
20260509051602 48 157 1.7 0.0 0.00 0.00 0.00 76 1007.7
20260509050101 48 130 2.6 0.0 0.00 0.00 0.00 75 1007.7
20260509044556 48 111 3.5 0.0 0.00 0.00 0.00 73 1007.8
20260509043051 47 140 2.6 0.0 0.00 0.00 0.00 73 1008.0
20260509041552 48 125 2.6 0.0 0.00 0.00 0.00 72 1008.1
20260509040048 48 111 3.5 0.0 0.00 0.00 0.00 71 1008.4
20260509034547 48 134 3.5 0.0 0.00 0.00 0.00 69 1008.5
20260509033102 49 159 2.6 0.0 0.00 0.00 0.00 67 1008.5
20260509031546 49 141 2.6 0.0 0.00 0.00 0.00 65 1008.6
20260509030048 50 168 2.6 0.0 0.00 0.00 0.00 62 1008.8
20260509024554 50 168 4.3 0.0 0.00 0.00 0.00 61 1008.9
20260509023045 50 152 3.5 0.0 0.00 0.00 0.00 60 1009.0
20260509021545 50 167 1.7 0.0 0.00 0.00 0.00 58 1008.9
20260509020047 51 170 2.6 0.0 0.00 0.00 0.00 57 1008.9
20260509014544 51 138 3.5 0.0 0.00 0.00 0.00 56 1008.5
20260509013048 51 137 2.6 0.0 0.00 0.00 0.00 54 1008.4
20260509011545 51 143 2.6 0.0 0.00 0.00 0.00 53 1008.3
20260509010043 52 157 1.7 0.0 0.00 0.00 0.00 50 1008.4
20260509004510 52 144 3.5 0.0 0.00 0.00 0.00 49 1008.3
20260509003010 53 147 2.6 0.0 0.00 0.00 0.00 48 1008.3
20260509001509 53 177 3.5 0.0 0.00 0.00 0.00 48 1008.5
20260509000008 54 145 4.3 0.0 0.00 0.00 0.00 46 1008.5
20260508234508 54 147 5.2 0.0 0.00 0.00 0.00 44 1008.5
20260508233008 55 157 5.2 0.0 0.00 0.00 0.00 44 1008.2
20260508231506 56 161 5.2 0.0 0.00 0.00 0.00 44 1008.7
20260508230007 56 160 5.2 0.0 0.00 0.00 0.00 43 1008.8
20260508224515 57 176 4.3 0.0 0.00 0.00 0.00 41 1008.7
20260508223004 56 139 6.1 0.0 0.00 0.00 0.00 40 1008.8
20260508221503 57 188 7.0 0.0 0.00 0.00 0.00 39 1008.7
20260508220003 57 190 7.0 0.0 0.00 0.00 0.00 39 1008.7
20260508214503 58 177 7.8 0.0 0.00 0.00 0.00 40 1008.7
20260508213006 58 184 7.8 0.0 0.00 0.00 0.00 40 1008.7
20260508211501 58 163 7.8 0.0 0.00 0.00 0.00 38 1008.6
20260508210002 59 206 7.8 0.0 0.00 0.00 0.00 39 1008.7
20260508204501 60 196 7.8 0.0 0.00 0.00 0.00 38 1008.8
20260508203108 59 199 8.7 0.0 0.00 0.00 0.00 41 1008.8
20260508201604 58 192 6.1 0.0 0.00 0.00 0.00 41 1008.8
20260508200111 60 183 7.0 0.0 0.00 0.00 0.00 39 1009.0
20260508194602 63 174 8.7 0.0 0.00 0.00 0.00 37 1008.9
20260508193105 66 284 3.5 0.0 0.00 0.00 0.00 23 1009.0
20260508191556 66 168 3.5 0.0 0.00 0.00 0.00 24 1009.1
20260508190053 64 241 4.3 0.0 0.00 0.00 0.00 26 1009.3
20260508184550 63 276 6.1 0.0 0.00 0.00 0.00 26 1009.6
20260508183100 62 276 5.2 0.0 0.00 0.00 0.00 27 1009.8
20260508181557 63 232 6.1 0.0 0.00 0.00 0.00 27 1009.9
20260508180044 62 255 5.2 0.0 0.00 0.00 0.00 25 1010.1
20260508174542 62 216 6.1 0.0 0.00 0.00 0.00 27 1010.2
20260508173041 62 313 3.5 0.0 0.00 0.00 0.00 26 1010.4
20260508171547 62 227 6.1 0.0 0.00 0.00 0.00 26 1010.6
20260508170038 62 264 5.2 0.0 0.00 0.00 0.00 26 1010.7
20260508164536 61 245 6.1 0.0 0.00 0.00 0.00 27 1010.9
20260508163037 60 259 4.3 0.0 0.00 0.00 0.00 28 1011.2
20260508161538 60 272 4.3 0.0 0.00 0.00 0.00 26 1011.4
20260508160036 59 215 6.1 0.0 0.00 0.00 0.00 28 1011.3
20260508154533 61 315 3.5 0.0 0.00 0.00 0.00 27 1011.4
20260508153030 59 269 4.3 0.0 0.00 0.00 0.00 32 1011.6
20260508151529 58 213 4.3 0.0 0.00 0.00 0.00 29 1011.5
20260508150037 59 294 2.6 0.0 0.00 0.00 0.00 31 1011.7
20260508144538 59 278 3.5 0.0 0.00 0.00 0.00 31 1011.9
20260508143034 57 345 3.5 0.0 0.00 0.00 0.00 35 1011.9
20260508141526 56 289 3.5 0.0 0.00 0.00 0.00 39 1011.8
20260508140024 58 255 2.6 0.0 0.00 0.00 0.00 39 1011.9
20260508134519 56 241 2.6 0.0 0.00 0.00 0.00 42 1011.9
20260508133017 55 287 3.5 0.0 0.00 0.00 0.00 49 1011.9
20260508131514 53 217 2.6 0.0 0.00 0.00 0.00 49 1011.6
20260508130014 53 180 2.6 0.0 0.00 0.00 0.00 51 1011.6
20260508124511 52 256 1.7 0.0 0.00 0.00 0.00 55 1011.7
20260508123007 50 208 1.7 0.0 0.00 0.00 0.00 60 1011.6
20260508121505 50 259 2.6 0.0 0.00 0.00 0.00 58 1011.4
20260508120005 49 213 2.6 0.0 0.00 0.00 0.00 62 1011.6
20260508114603 45 229 1.7 0.0 0.00 0.00 0.00 72 1011.6
20260508113044 40 199 1.7 0.0 0.00 0.00 0.00 84 1011.7
20260508111524 37 338 0.0 0.0 0.00 0.00 0.00 82 1011.6
20260508110022 37 338 0.0 0.0 0.00 0.00 0.00 81 1011.7
20260508104521 38 338 0.0 0.0 0.00 0.00 0.00 80 1011.4
20260508103019 38 338 0.0 0.0 0.00 0.00 0.00 80 1011.4
20260508101517 39 338 0.0 0.0 0.00 0.00 0.00 80 1011.4
20260508100016 40 338 0.0 0.0 0.00 0.00 0.00 79 1011.4
20260508094513 40 338 0.0 0.0 0.00 0.00 0.00 79 1011.2
20260508093014 41 345 0.0 0.0 0.00 0.00 0.00 78 1011.3
20260508091510 41 345 0.0 0.0 0.00 0.00 0.00 78 1011.5